"Pseudo-MPEC" for ZTF10FD

Created 2026 Aug 11 15:35:28 UT using Find_Orb

Click here for an explanation of pseudo-MPECs

 
 Astrometry: 
     ZTF10FD*0C2026 08 06.25796522 00 17.725-05 25 57.59   ~86FZ 17.38gUNEOCPI41
     ZTF10FD 0C2026 08 06.25831622 00 22.165-05 26 09.70   ~86FZ 17.38gUNEOCPI41
     ZTF10FD 0C2026 08 06.29030822 07 29.657-05 46 29.09   ~86FZ 16.53iUNEOCPI41
     ZTF10FD 0C2026 08 06.29065622 07 34.410-05 46 42.34   ~86FZ 16.53iUNEOCPI41

Station data:
(I41) Palomar Mountain--ZTF  (N33.357336 W116.859780)  US/California.
   Observers B. T. Bolin, Z. T. F. Collaboration. Measurers B. T. Bolin,
   Z.-Y. Lin, F. J. Masci. 1.2-m f/2.4 Schmidt.

Orbital elements:  ZTF10FD
   Perihelion 2026 Sep 22.912787 +/- 30.1 TT = 21:54:24.7 (JD 2461306.412787)
Epoch 2026 Aug  6.0 TT = JDT 2461258.5   Earth MOID: 0.0009   Ve: 0.0707
M 341.007512504 +/- 20              Ma: 0.0030                   AutoNEOCP
n   0.396397054 +/- 0.306           Peri.  253.075625 +/- 42
a   1.835336787 +/- 0.945           Node   133.711484 +/- 30
e   0.59197163 +/- 0.251            Incl.    9.674694 +/- 3.8
P   2.486/908.163d         H 27.77  G  0.15   U 11.9  SR
q 0.748869460 +/- 0.157    Q 2.921804115 +/- 25           (J2000 ecliptic)
From 4 observations 2026 Aug. 6 (47.1 min); mean residual 0".74
Residuals in arcseconds: 
260806 I41  .20-  .28-    260806 I41  1.4+  .36-    
260806 I41  .19+  .29+    260806 I41  1.4-  .36+    

Ephemerides (geocentric):
Date (UTC) HH   RA             Dec           delta  r     elong  mag " sig PA
---- --------  ------------   ------------  ------ ------ -----  --- --------
2026 08 11 16  08 06 19.941   -00 08 41.60  .04702 .97093  24.6 30??  53d  95
2026 08 11 17  08 06 25.023   -00 08 24.67  .04741 .97057  24.6 30??  53d  95
2026 08 11 18  08 06 30.028   -00 08 07.95  .04781 .97021  24.7 30??  53d  95
2026 08 11 19  08 06 34.957   -00 07 51.43  .04820 .96985  24.7 30??  53d  95
2026 08 11 20  08 06 39.813   -00 07 35.09  .04859 .96949  24.7 30??  53d  95
2026 08 11 21  08 06 44.597   -00 07 18.95  .04899 .96913  24.7 30??  53d  95
2026 08 11 22  08 06 49.311   -00 07 02.99  .04938 .96878  24.7 30??  53d  95
2026 08 11 23  08 06 53.956   -00 06 47.21  .04978 .96842  24.7 30??  53d  95
2026 08 12 00  08 06 58.535   -00 06 31.60  .05017 .96806  24.7 30??  53d  95
2026 08 12 01  08 07 03.050   -00 06 16.16  .05056 .96770  24.7 30??  53d  95
2026 08 12 02  08 07 07.500   -00 06 00.89  .05096 .96734  24.7 30??  53d  95
2026 08 12 03  08 07 11.889   -00 05 45.77  .05135 .96698  24.7 30??  53d  95
2026 08 12 04  08 07 16.218   -00 05 30.81  .05175 .96662  24.7 30??  53d  95
2026 08 12 05  08 07 20.487   -00 05 16.00  .05214 .96626  24.7 30??  53d  95
2026 08 12 06  08 07 24.698   -00 05 01.34  .05253 .96591  24.7 30??  53d  95
2026 08 12 07  08 07 28.854   -00 04 46.83  .05293 .96555  24.7 30??  53d  95
2026 08 12 08  08 07 32.954   -00 04 32.45  .05332 .96519  24.7 30??  53d  95
2026 08 12 09  08 07 37.000   -00 04 18.20  .05372 .96483  24.7 30??  53d  95
2026 08 12 10  08 07 40.994   -00 04 04.10  .05411 .96447  24.8 30??  53d  95
2026 08 12 11  08 07 44.937   -00 03 50.11  .05450 .96412  24.8 30??  53d  95
2026 08 12 12  08 07 48.829   -00 03 36.26  .05490 .96376  24.8 30??  53d  95
2026 08 12 13  08 07 52.672   -00 03 22.53  .05529 .96340  24.8 30??  53d  95
2026 08 12 14  08 07 56.467   -00 03 08.91  .05569 .96304  24.8 30??  53d  95
2026 08 12 15  08 08 00.216   -00 02 55.42  .05608 .96269  24.8 30??  53d  95
2026 08 12 16  08 08 03.918   -00 02 42.03  .05648 .96233  24.8 30??  53d  95
2026 08 12 17  08 08 07.575   -00 02 28.76  .05687 .96197  24.8 30??  53d  95
2026 08 12 18  08 08 11.189   -00 02 15.60  .05727 .96162  24.8 30??  53d  95
2026 08 12 19  08 08 14.759   -00 02 02.54  .05766 .96126  24.8 30??  53d  95
2026 08 12 20  08 08 18.288   -00 01 49.58  .05805 .96090  24.8 30??  53d  95
2026 08 12 21  08 08 21.775   -00 01 36.72  .05845 .96055  24.9 30??  53d  95
2026 08 12 22  08 08 25.222   -00 01 23.96  .05884 .96019  24.9 30??  53d  95
2026 08 12 23  08 08 28.629   -00 01 11.29  .05924 .95983  24.9 30??  53d  95
2026 08 13 00  08 08 31.998   -00 00 58.71  .05963 .95948  24.9 30??  53d  95
2026 08 13 01  08 08 35.329   -00 00 46.23  .06003 .95912  24.9 30??  53d  95
2026 08 13 02  08 08 38.623   -00 00 33.83  .06042 .95877  24.9 30??  53d  95
2026 08 13 03  08 08 41.880   -00 00 21.52  .06082 .95841  24.9 30??  53d  95
2026 08 13 04  08 08 45.103   -00 00 09.29  .06121 .95806  24.9 30??  53d  95
2026 08 13 05  08 08 48.290   +00 00 02.86  .06161 .95770  24.9 30??  53d  95
2026 08 13 06  08 08 51.443   +00 00 14.93  .06200 .95734  25.0 30??  54d  95
2026 08 13 07  08 08 54.563   +00 00 26.92  .06240 .95699  25.0 30??  54d  95
2026 08 13 08  08 08 57.651   +00 00 38.84  .06279 .95663  25.0 30??  54d  95
2026 08 13 09  08 09 00.706   +00 00 50.68  .06319 .95628  25.0 30??  54d  95
2026 08 13 10  08 09 03.730   +00 01 02.46  .06359 .95592  25.0 30??  54d  95
2026 08 13 11  08 09 06.723   +00 01 14.16  .06398 .95557  25.0 30??  54d  95
2026 08 13 12  08 09 09.686   +00 01 25.79  .06438 .95522  25.0 30??  54d  95
2026 08 13 13  08 09 12.619   +00 01 37.36  .06477 .95486  25.0 30??  54d  95
2026 08 13 14  08 09 15.524   +00 01 48.87  .06517 .95451  25.1 30??  54d  95
2026 08 13 15  08 09 18.400   +00 02 00.31  .06556 .95415  25.1 30??  54d  95